Regional Weather Roundup
Issued by NWS Cleveland, OH

Home | Current Version | Previous Version | Graphics & Text | Print | Product List | Glossary On
Versions: 1 2 3 4 5 6 7 8 9 10 11 12 13 14 15 16 17 18 19 20 21 22 23 24 25 26 27 28 29 30 31 32 33 34 35 36 37 38 39 40 41 42 43 44 45 46 47 48 49 50
000
ASUS41 KCLE 191700
RWRCLE
OHIO REGIONAL WEATHER ROUNDUP
NATIONAL WEATHER SERVICE WILMINGTON, OH
100 PM EDT FRI SEP 19 2014

NOTE: "FAIR" INDICATES FEW OR NO CLOUDS BELOW 12,000 FEET WITH NO
SIGNIFICANT WEATHER AND/OR OBSTRUCTIONS TO VISIBILITY.

OHZ001>008-015>018-024>027-034-035-043-044-191800-
   NORTHWEST OHIO

CITY           SKY/WX    TMP DP  RH WIND       PRES   REMARKS
DEFIANCE       NOT AVBL
FINDLAY        NOT AVBL
TOLEDO EXPRESS NOT AVBL
TOLEDO METCALF NOT AVBL
LIMA           NOT AVBL
$$

OHZ009>014-019>023-028>033-038-089-191800-
   NORTHEAST OHIO

CITY           SKY/WX    TMP DP  RH WIND       PRES   REMARKS
CLE-HOPKINS    MOSUNNY   65  46  50 VRB3      30.25F
CLE-LAKEFRONT  NOT AVBL
CUY CO. ARPT   MOSUNNY   61  50  67 S7        30.24F
LORAIN-ELYRIA  NOT AVBL
ASHTABULA      NOT AVBL
AKRON-CANTON   MOSUNNY   67  46  47 CALM      30.23F
WOOSTER        NOT AVBL
MANSFIELD      NOT AVBL
YOUNGSTOWN     MOSUNNY   65  48  54 CALM      30.25F
$$

OHZ042-051>053-060>062-070>072-077>081-191800-
  SOUTHWEST OHIO

CITY           SKY/WX    TMP DP  RH WIND       PRES   REMARKS
CINC-COVINGTON NOT AVBL
CINC-LUNKEN    NOT AVBL
HAMILTON       NOT AVBL
DAYTON         NOT AVBL
WRIGHT-PAT AFB NOT AVBL
DAYTON GENERAL NOT AVBL
WILMINGTON     SUNNY     69  49  48 E9        30.18F
$$

OHZ036-037-039>041-045>050-054>059-063>069-073>076-082>088-191800-
  CENTRAL AND SOUTHEAST OHIO

CITY           SKY/WX    TMP DP  RH WIND       PRES   REMARKS
COLUMBUS       SUNNY     71  44  37 VRB3      30.19F
OSU AIRPORT    NOT AVBL
BOLTON FIELD   SUNNY     70  48  46 NE8       30.20F
RICKENBACK AFB NOT AVBL
NEWARK         SUNNY     69  47  45 NE8       30.20F
MARION         NOT AVBL
LANCASTER      NOT AVBL
ZANESVILLE     NOT AVBL
NEW PHILLY     NOT AVBL
$$


USA.gov is the U.S. government's official web portal to all federal, state and local government web resources and services.